Wind_Speed
6 6 6 6 6 5 4 3 2 1 1 1 0 1 2 3 4 4 5 5 5 5 5 5 6 6 6 6 5 5 5 7 8 9 9 10 10 9 9 9 9 10 10
5 6 6 6 5 5 4 4 3 1 1 1 1 1 2 3 3 4 5 5 5 5 5 5 5 5 4 4 4 5 5 6 7 8 9 9 9 9 9 9 10 11 10
5 5 6 6 5 5 4 4 3 2 1 1 1 1 2 2 3 4 4 4 5 5 5 5 4 4 4 4 4 5 6 6 7 7 8 8 8 9 9 10 10 10 10
5 5 5 5 5 5 4 4 3 3 2 2 2 2 2 2 3 3 3 4 5 5 5 5 4 4 5 4 4 4 5 6 7 7 8 8 8 9 9 9 10 10 10
4 5 5 5 5 5 4 4 3 3 2 2 3 3 3 3 2 2 3 4 5 5 5 5 5 5 5 5 4 5 5 6 6 7 8 8 9 9 9 10 10 10 11
4 4 4 5 5 4 4 4 3 3 3 2 2 3 2 2 2 2 3 3 4 5 5 5 5 5 5 6 5 5 6 6 6 7 7 8 9 9 9 10 10 10 11
3 3 4 4 4 4 4 4 4 4 3 2 2 2 2 2 2 2 2 2 3 4 5 4 4 5 5 6 6 6 6 6 7 7 7 8 9 9 10 10 10 10 11
3 3 4 4 4 4 3 3 3 3 3 2 2 2 2 1 1 1 1 2 2 3 3 4 4 4 5 5 6 6 7 7 8 9 9 9 9 10 10 11 12 12 12
3 3 3 3 4 3 3 2 2 2 2 1 1 1 1 0 1 1 1 1 2 3 3 3 3 4 5 5 6 7 7 8 9 10 10 10 10 11 12 13 13 13 14
3 3 3 3 3 3 2 2 1 1 1 1 1 0 0 1 1 1 0 1 2 2 3 3 3 4 4 5 6 7 7 8 8 8 9 9 10 11 12 13 14 14 14
2 3 3 3 3 3 2 2 1 1 1 1 1 1 1 1 1 1 1 2 2 2 3 4 4 4 5 5 6 6 7 8 8 8 9 9 9 11 11 12 13 13 13
3 3 3 3 3 3 2 2 1 1 2 2 2 2 2 3 3 3 3 3 3 3 4 4 5 5 6 6 6 7 8 8 9 8 9 9 9 10 11 11 13 14 14
3 4 4 3 3 3 3 2 2 2 3 3 3 4 4 5 5 4 5 4 4 5 5 6 6 6 7 7 7 7 8 9 9 9 9 10 11 12 12 11 12 13 14
3 3 3 3 4 4 4 4 3 3 3 4 4 5 5 5 5 5 6 6 6 6 6 7 7 7 8 9 9 9 9 10 11 11 11 12 12 13 13 13 13 13 14
4 4 4 4 4 5 5 5 5 4 4 4 5 5 6 6 6 7 7 7 7 7 7 8 8 9 9 10 10 10 10 10 11 12 13 13 14 14 15 15 16 16 17
6 6 6 6 6 6 6 6 6 6 6 6 6 7 7 7 7 8 9 9 9 9 9 9 10 10 10 11 11 11 11 12 13 13 14 15 16 16 17 17 18 19 20
7 7 8 8 8 8 7 7 7 8 9 9 9 9 9 9 9 10 10 10 11 11 11 11 11 11 12 12 13 13 14 14 15 15 16 16 17 18 19 20 20 21 21
8 9 9 9 9 9 9 10 10 10 11 11 11 11 11 11 11 12 12 13 13 13 13 13 14 14 14 15 15 16 16 16 17 18 18 19 19 20 20 21 22 22 23
10 11 11 11 11 11 11 11 12 12 12 13 13 12 12 13 13 14 14 14 15 15 16 16 16 16 17 17 18 18 18 19 19 20 20 20 21 22 22 23 23 24 25
12 12 12 12 13 13 14 14 14 14 14 14 14 14 15 15 15 15 16 16 17 17 18 18 18 19 19 20 20 20 21 21 21 22 22 23 23 24 24 25 26 26 27
13 13 14 14 14 14 15 15 15 15 15 15 15 16 16 16 16 17 17 18 18 19 20 20 21 21 22 22 22 23 23 24 24 25 25 25 26 27 28 28 29 29 30
14 15 14 14 15 15 16 16 16 16 16 16 16 17 17 17 18 19 19 20 20 21 21 22 23 24 24 25 25 26 26 27 27 28 28 29 30 30 32 32 33 33 34
15 15 16 16 16 16 17 17 18 18 18 19 19 19 19 20 20 21 21 22 22 23 23 24 25 25 26 27 27 28 29 29 30 31 32 32 33 34 35 36 36 37 38
16 17 17 18 18 18 19 19 19 19 20 20 21 21 21 22 22 23 23 23 24 24 25 26 27 27 28 29 29 30 31 31 32 33 34 35 36 37 37 38 40 40 41
17 18 18 18 19 19 20 20 20 20 21 21 22 22 22 23 24 24 25 25 26 27 28 28 29 30 31 32 32 33 33 34 34 35 37 38 38 39 40 41 41 42 43
18 18 19 19 20 20 21 21 22 21 21 22 23 23 23 24 25 26 27 27 28 29 30 30 31 32 33 34 34 35 36 37 37 38 39 40 41 42 42 42 43 43 44
Wind_Direction
358 359 2 1 357 356 2 6 359 3 18 13 101 165 179 185 189 189 193 191 197 203 201 207 212 217 222 228 235 229 221 209 208 212 219 223 229 235 234 234 236 234 241
1 5 6 3 2 3 10 18 21 22 38 43 41 129 159 175 181 187 192 195 194 198 196 199 203 210 215 220 221 214 213 212 210 216 222 226 232 235 238 238 241 244 248
359 5 7 7 9 10 14 23 31 38 48 60 80 122 140 157 156 169 180 190 198 201 195 199 206 208 209 210 215 219 216 217 217 224 231 236 239 240 240 240 240 244 248
4 8 11 9 14 15 19 26 36 45 52 66 86 106 136 155 166 176 181 186 194 197 200 206 212 214 216 216 222 227 224 224 226 231 235 242 244 245 242 239 243 247 248
11 13 13 12 18 24 27 29 39 51 53 63 83 99 120 135 157 174 181 189 199 205 205 213 217 219 220 219 223 226 223 225 231 234 238 241 242 244 243 244 247 249 251
16 21 20 18 23 29 32 34 43 52 52 69 91 100 110 116 144 163 177 187 196 205 209 214 216 221 224 224 229 231 231 234 241 241 243 245 246 245 245 246 250 252 254
16 20 19 22 23 22 30 40 49 55 56 68 89 100 109 120 149 168 186 190 193 202 207 214 220 226 229 230 237 238 240 246 248 248 246 245 247 247 247 250 253 256 259
5 11 20 25 27 26 34 42 52 58 53 62 80 96 112 120 126 126 143 171 180 195 206 212 223 229 234 242 250 245 250 253 252 251 250 246 249 251 253 254 255 258 261
355 2 16 20 18 18 29 45 58 56 43 50 80 90 108 132 136 129 126 162 188 206 217 226 234 242 248 261 255 253 255 257 259 258 255 252 251 253 255 257 258 259 259
351 358 3 7 10 17 28 35 40 32 20 18 31 56 168 197 176 156 197 192 212 221 226 231 241 254 262 269 260 257 257 260 262 254 257 257 258 260 261 262 260 259 256
339 350 351 355 2 9 12 10 4 355 348 340 322 307 249 234 238 243 251 246 236 233 237 244 248 257 269 280 281 269 265 264 264 261 262 262 264 265 265 265 258 257 256
313 330 334 331 333 341 347 345 341 333 322 313 297 282 272 263 257 248 247 250 252 253 254 256 259 264 272 282 288 279 274 273 268 267 268 269 267 267 267 266 261 259 258
302 315 321 324 322 321 318 306 300 306 308 303 293 282 276 271 264 250 248 248 250 257 262 267 268 270 274 280 288 287 280 277 274 269 269 271 272 269 269 271 267 263 260
284 298 305 308 310 310 309 306 298 301 302 302 297 290 285 282 270 258 256 254 255 259 263 270 276 278 279 278 284 286 286 279 276 274 272 273 274 276 274 274 269 267 268
273 283 292 301 304 301 297 297 296 296 294 298 295 297 296 287 270 266 265 262 266 269 269 270 273 278 282 281 283 281 281 285 282 279 277 275 274 277 278 275 272 270 270
273 279 285 291 294 293 291 290 286 289 294 294 294 293 292 287 275 274 270 267 268 270 273 274 276 278 280 282 284 282 280 281 282 284 284 281 278 276 277 279 279 276 274
274 277 280 282 284 287 286 287 288 288 289 289 288 287 285 281 278 276 273 272 272 273 275 275 277 278 281 283 283 283 282 281 281 283 284 284 282 280 279 278 279 279 277
273 275 278 280 282 285 286 287 287 288 287 285 283 281 280 279 278 277 276 274 274 276 277 278 278 278 280 282 283 283 283 283 284 284 283 283 283 283 283 282 281 280 279
272 275 277 280 281 282 283 285 286 285 285 283 281 279 278 278 278 276 276 276 277 277 278 279 280 282 283 285 286 286 286 286 286 286 285 284 284 284 284 284 283 283 282
270 275 278 281 282 282 282 283 284 283 282 281 280 278 277 277 276 275 276 277 277 277 279 280 281 282 284 285 285 285 285 285 286 286 286 286 285 285 285 285 285 284 284
271 274 278 280 281 283 284 284 284 282 282 280 279 278 278 277 277 277 277 278 278 278 279 280 281 283 284 284 285 285 285 285 286 287 287 287 287 286 286 286 286 285 285
271 274 276 280 282 284 284 285 285 283 282 281 279 279 279 278 278 278 278 279 279 279 280 281 282 283 284 284 285 285 285 285 286 286 287 287 288 288 287 286 286 285 285
272 275 278 279 282 284 285 285 284 282 282 280 279 278 278 278 278 279 279 280 280 280 280 281 282 283 284 284 284 284 285 285 286 286 287 287 288 288 287 287 286 286 286
273 275 279 280 281 283 284 285 285 282 281 281 279 279 279 279 279 280 281 282 283 282 282 282 283 284 285 285 285 285 285 286 287 287 287 287 287 287 288 287 287 286 286
274 277 278 278 281 282 283 284 284 283 283 283 281 280 280 280 282 283 283 283 283 283 283 283 285 285 285 286 286 286 286 286 287 288 288 287 287 287 287 287 287 286 286
278 279 280 281 283 283 283 284 285 285 285 285 284 283 283 284 284 285 284 283 283 283 284 284 285 286 286 287 287 287 286 287 287 288 288 288 288 287 287 287 287 286 286
Height
5877 5876 5874 5873 5871 5870 5868 5868 5867 5866 5865 5865 5865 5865 5865 5865 5866 5866 5867 5868 5869 5869 5870 5871 5872 5872 5873 5874 5874 5874 5875 5874 5875 5877 5879 5880 5881 5882 5883 5884 5885 5886 5886
5877 5875 5874 5872 5871 5869 5868 5867 5866 5866 5865 5865 5865 5865 5865 5865 5865 5866 5867 5868 5869 5869 5870 5871 5871 5872 5873 5873 5874 5874 5875 5875 5876 5877 5878 5879 5880 5881 5882 5883 5883 5884 5885
5876 5875 5873 5872 5870 5869 5868 5867 5866 5865 5865 5865 5865 5865 5865 5865 5865 5866 5867 5867 5868 5869 5870 5870 5871 5871 5872 5872 5873 5874 5874 5875 5875 5876 5877 5878 5879 5880 5880 5881 5882 5882 5883
5876 5875 5873 5872 5870 5869 5868 5867 5866 5865 5865 5865 5864 5864 5865 5865 5866 5866 5866 5867 5868 5869 5869 5870 5870 5871 5871 5872 5872 5873 5874 5874 5874 5875 5876 5877 5877 5878 5878 5879 5880 5880 5881
5875 5874 5873 5872 5870 5869 5868 5867 5866 5865 5865 5865 5864 5864 5865 5865 5865 5866 5866 5867 5867 5868 5869 5869 5870 5870 5871 5871 5872 5872 5873 5873 5873 5874 5874 5875 5876 5876 5877 5877 5878 5878 5878
5875 5874 5873 5871 5870 5869 5867 5867 5866 5866 5865 5865 5865 5865 5865 5865 5865 5866 5866 5866 5867 5868 5868 5869 5869 5870 5870 5871 5871 5871 5872 5872 5872 5873 5873 5873 5874 5874 5874 5875 5875 5875 5876
5875 5874 5872 5871 5870 5869 5867 5867 5866 5866 5866 5865 5865 5865 5865 5866 5866 5866 5866 5867 5867 5867 5868 5868 5869 5869 5869 5870 5870 5870 5870 5870 5871 5871 5871 5871 5871 5872 5872 5872 5872 5873 5873
5875 5873 5872 5871 5870 5869 5867 5867 5866 5866 5866 5866 5866 5865 5866 5867 5866 5866 5866 5867 5867 5867 5867 5868 5868 5868 5869 5869 5869 5869 5869 5869 5869 5869 5869 5869 5869 5869 5869 5869 5870 5870 5870
5874 5873 5872 5871 5870 5869 5867 5867 5866 5866 5866 5866 5866 5866 5866 5866 5866 5866 5866 5866 5867 5867 5867 5867 5867 5868 5868 5867 5867 5867 5867 5866 5866 5865 5866 5866 5866 5866 5866 5866 5866 5866 5866
5874 5873 5872 5871 5870 5869 5868 5867 5867 5866 5866 5866 5866 5866 5866 5866 5866 5866 5866 5866 5866 5866 5866 5867 5866 5866 5866 5866 5866 5865 5864 5864 5863 5861 5862 5862 5863 5863 5863 5862 5862 5862 5863
5873 5872 5871 5871 5870 5869 5868 5867 5867 5866 5866 5866 5866 5865 5865 5865 5866 5866 5865 5866 5866 5866 5866 5866 5866 5865 5865 5865 5864 5863 5862 5862 5861 5860 5860 5860 5860 5860 5859 5858 5858 5858 5859
5873 5872 5871 5870 5869 5868 5868 5867 5867 5866 5866 5866 5865 5865 5865 5865 5865 5865 5865 5865 5865 5865 5865 5865 5864 5864 5864 5863 5862 5861 5860 5860 5860 5859 5858 5858 5858 5857 5856 5855 5854 5855 5855
5872 5871 5870 5869 5869 5868 5867 5866 5866 5866 5865 5865 5864 5864 5863 5863 5863 5863 5864 5863 5863 5863 5863 5863 5863 5862 5862 5861 5860 5859 5859 5858 5858 5857 5857 5856 5856 5855 5854 5852 5851 5852 5852
5871 5870 5869 5869 5868 5867 5866 5866 5865 5865 5864 5864 5863 5863 5862 5861 5861 5862 5862 5862 5862 5862 5861 5861 5861 5860 5859 5859 5858 5857 5857 5856 5855 5855 5854 5854 5853 5852 5851 5850 5848 5849 5849
5870 5869 5869 5868 5867 5866 5865 5865 5864 5864 5863 5862 5862 5861 5860 5860 5859 5860 5860 5860 5860 5860 5860 5859 5859 5858 5857 5856 5856 5855 5854 5854 5853 5852 5851 5850 5850 5849 5848 5848 5846 5846 5845
5868 5868 5867 5866 5866 5865 5864 5863 5863 5862 5861 5861 5860 5860 5859 5858 5858 5858 5858 5858 5858 5858 5857 5856 5856 5855 5854 5853 5853 5852 5851 5850 5850 5849 5848 5847 5846 5845 5844 5844 5843 5842 5841
5866 5866 5865 5865 5864 5863 5862 5861 5861 5860 5859 5859 5858 5858 5857 5856 5856 5855 5855 5855 5855 5855 5854 5854 5853 5852 5851 5850 5849 5848 5847 5847 5846 5845 5844 5843 5842 5841 5840 5839 5838 5837 5836
5864 5864 5863 5862 5862 5861 5860 5859 5858 5857 5857 5856 5855 5855 5854 5853 5853 5853 5852 5852 5852 5851 5851 5850 5849 5848 5848 5847 5846 5844 5843 5842 5841 5840 5839 5838 5837 5836 5835 5833 5832 5831 5830
5862 5861 5860 5860 5859 5858 5857 5856 5855 5854 5853 5852 5852 5851 5851 5850 5849 5849 5849 5848 5848 5847 5847 5846 5845 5844 5843 5842 5841 5840 5839 5838 5836 5835 5834 5833 5831 5830 5829 5827 5826 5825 5823
5858 5858 5857 5856 5856 5855 5854 5853 5851 5850 5849 5848 5848 5847 5847 5846 5846 5845 5845 5844 5844 5843 5842 5842 5841 5840 5838 5837 5836 5835 5834 5832 5831 5829 5828 5826 5825 5824 5822 5821 5819 5818 5816
5855 5854 5854 5853 5852 5851 5850 5848 5847 5846 5845 5844 5843 5843 5842 5842 5841 5841 5840 5840 5839 5838 5837 5837 5836 5835 5833 5832 5830 5829 5828 5826 5825 5823 5821 5820 5818 5817 5815 5813 5812 5810 5808
5851 5850 5850 5849 5848 5847 5845 5844 5842 5841 5840 5839 5839 5838 5837 5837 5836 5836 5835 5834 5834 5833 5832 5831 5830 5829 5827 5826 5824 5822 5821 5820 5818 5817 5814 5813 5810 5809 5807 5805 5803 5801 5799
5847 5846 5845 5845 5843 5842 5841 5839 5838 5836 5835 5834 5833 5833 5832 5831 5831 5830 5829 5829 5828 5827 5826 5824 5823 5822 5820 5819 5817 5815 5813 5812 5810 5808 5806 5804 5801 5799 5797 5794 5792 5790 5788
5843 5842 5841 5840 5839 5837 5836 5834 5833 5831 5830 5829 5828 5827 5826 5826 5825 5824 5823 5822 5821 5820 5818 5817 5816 5814 5812 5811 5809 5807 5805 5803 5801 5799 5796 5795 5792 5789 5787 5784 5781 5778 5776
5838 5837 5836 5835 5834 5832 5831 5829 5828 5826 5825 5824 5822 5821 5820 5819 5818 5817 5817 5816 5814 5813 5811 5809 5807 5805 5803 5801 5799 5797 5795 5793 5791 5789 5785 5783 5781 5778 5776 5773 5769 5766 5763
5833 5832 5831 5830 5828 5827 5825 5824 5822 5821 5819 5818 5817 5815 5814 5813 5811 5810 5809 5808 5806 5805 5803 5801 5799 5797 5794 5792 5789 5787 5785 5782 5780 5778 5774 5771 5769 5766 5764 5761 5757 5753 5750